MicroStrategy Current Ratio 2006-2020 | MSTR

MicroStrategy current ratio from 2006 to 2020. Current ratio can be defined as a liquidity ratio that measures a company's ability to pay short-term obligations.
MicroStrategy Current Ratio Historical Data
Date Current Assets Current Liabilities Current Ratio
2020-06-30 $0.67B $0.24B 2.80
2020-03-31 $0.69B $0.25B 2.74
2019-12-31 $0.75B $0.27B 2.79
2019-09-30 $0.72B $0.23B 3.13
2019-06-30 $0.73B $0.25B 2.90
2019-03-31 $0.72B $0.26B 2.72
2018-12-31 $0.78B $0.26B 3.01
2018-09-30 $0.84B $0.21B 3.96
2018-06-30 $0.85B $0.24B 3.61
2018-03-31 $0.88B $0.26B 3.35
2017-12-31 $0.86B $0.27B 3.18
2017-09-30 $0.73B $0.18B 4.13
2017-06-30 $0.72B $0.18B 3.94
2017-03-31 $0.70B $0.19B 3.79
2016-12-31 $0.69B $0.19B 3.69
2016-09-30 $0.65B $0.18B 3.55
2016-06-30 $0.62B $0.19B 3.28
2016-03-31 $0.61B $0.20B 3.11
2015-12-31 $0.57B $0.17B 3.27
2015-09-30 $0.54B $0.18B 2.96
2015-06-30 $0.51B $0.19B 2.73
2015-03-31 $0.48B $0.20B 2.45
2014-12-31 $0.46B $0.20B 2.34
2014-09-30 $0.46B $0.22B 2.09
2014-06-30 $0.47B $0.23B 2.02
2014-03-31 $0.46B $0.23B 2.02
2013-12-31 $0.48B $0.23B 2.06
2013-09-30 $0.44B $0.22B 2.01
2013-06-30 $0.42B $0.21B 2.02
2013-03-31 $0.43B $0.22B 1.99
2012-12-31 $0.36B $0.22B 1.65
2012-09-30 $0.34B $0.21B 1.64
2012-06-30 $0.32B $0.19B 1.63
2012-03-31 $0.33B $0.22B 1.52
2011-12-31 $0.34B $0.22B 1.57
2011-09-30 $0.31B $0.19B 1.60
2011-06-30 $0.31B $0.19B 1.59
2011-03-31 $0.31B $0.19B 1.63
2010-12-31 $0.30B $0.19B 1.59
2010-09-30 $0.28B $0.17B 1.65
2010-06-30 $0.29B $0.15B 1.88
2010-03-31 $0.30B $0.15B 2.00
2009-12-31 $0.31B $0.15B 2.00
2009-09-30 $0.28B $0.14B 2.02
2009-06-30 $0.24B $0.13B 1.86
2009-03-31 $0.23B $0.13B 1.72
2008-12-31 $0.21B $0.14B 1.50
2008-09-30 $0.22B $0.16B 1.33
2008-06-30 $0.21B $0.14B 1.49
2008-03-31 $0.20B $0.13B 1.47
2007-12-31 $0.18B $0.13B 1.43
2007-09-30 $0.17B $0.12B 1.46
2007-06-30 $0.16B $0.11B 1.42
2007-03-31 $0.15B $0.12B 1.32
2006-12-31 $0.18B $0.11B 1.56
2006-09-30 $0.13B $0.10B 1.27
2006-06-30 $0.12B $0.10B 1.21
2006-03-31 $0.15B $0.10B 1.54
2005-12-31 $0.17B $0.09B 1.87
2005-09-30 $0.14B $0.08B 1.70
2005-06-30 $0.12B $0.08B 1.40
2005-03-31 $0.19B $0.09B 2.25
Sector Industry Market Cap Revenue
Computer and Technology Computer Software $1.252B $0.486B
MicroStrategy Incorporated, a leading worldwide provider of business intelligence software, today announced that GT Nexus has selected MicroStrategy to power the customer-facing analytics and reporting capabilities on its Global Logistics portal. The GT Nexus portal is an on demand technology platform that is used by importers, exporters, transportation carriers, suppliers, banks, and other partners to manage goods that are moving around the world. The GT Nexus system captures and stores hard-to-get data associated with global supply chains, and then fuels a range of Web applications that can be used by constituents to lower supply chain costs and improve control. MicroStrategy will help GT Nexus to deliver a wide range of analytics and reporting capabilities to its customers, which include Home Depot, Kmart, Xerox, Weyerhaeuser, and American Eagle Outfitters.
Stock Name Country Market Cap PE Ratio
Microsoft (MSFT) United States $1000.000B 35.65
Adobe (ADBE) United States $213.125B 57.85
SAP SE (SAP) Germany $190.045B 34.46
Salesforce, Inc (CRM) United States $175.560B 240.56
Oracle (ORCL) United States $170.158B 15.84
Intuit (INTU) United States $79.893B 63.69
VMware (VMW) United States $58.755B 30.35
Autodesk (ADSK) United States $51.825B 139.90
Dassault Systemes SA (DASTY) France $46.921B 51.82
Cadence Design Systems (CDNS) United States $30.458B 30.10
Synopsys (SNPS) United States $29.990B 64.89
ANSYS (ANSS) United States $26.586B 62.49
Citrix Systems (CTXS) United States $17.624B 29.68
SS&C Technologies Holdings (SSNC) United States $14.734B 14.90
Open Text (OTEX) Canada $12.231B 43.30
PTC (PTC) United States $9.899B 46.50
Pegasystems (PEGA) United States $9.400B 0.00
Trend Micro (TMICY) Japan $8.256B 29.82
Nuance Communications (NUAN) United States $7.693B 37.99
Aspen Technology (AZPN) United States $6.575B 28.36
Manhattan Associates (MANH) United States $6.085B 75.43
Descartes Systems Group (DSGX) Canada $4.758B 119.85
Konami (KNMCY) Japan $4.092B 22.75
ACI Worldwide (ACIW) United States $3.106B 46.19
Blackbaud (BLKB) United States $3.103B 46.33
Verint Systems (VRNT) United States $2.897B 19.60
Cornerstone OnDemand (CSOD) United States $2.264B 41.29
Bottomline Technologies (EPAY) United States $2.120B 127.00
CommVault Systems (CVLT) United States $2.045B 80.14
Progress Software (PRGS) United States $1.561B 13.72
Sapiens (SPNS) Israel $1.535B 38.68
PROS Holdings (PRO) United States $1.414B 0.00
Simulations Plus (SLP) United States $1.255B 130.37
Rosetta Stone (RST) United States $0.658B 0.00
Magic Software Enterprises (MGIC) Israel $0.587B 19.03
QAD (QADB) United States $0.575B 2816.00
American Software (AMSWA) United States $0.534B 63.35
Canaan (CAN) China $0.392B 0.00
Avid Technology (AVID) United States $0.360B 35.78
Icad Inc (ICAD) United States $0.211B 0.00
OptimizeRx (OPRX) United States $0.207B 0.00
Smith Micro Software (SMSI) United States $0.171B 12.15
ServiceSource (SREV) United States $0.149B 0.00
Park City (PCYG) United States $0.086B 87.40
Neonode (NEON) Sweden $0.085B 0.00
NetSol Technologies (NTWK) United States $0.037B 11.37
CounterPath (CPAH) Canada $0.030B 0.00
BSQUARE (BSQR) United States $0.019B 0.00
GSE Systems (GVP) United States $0.019B 18.80